Tracking 29892 objects as of 21-Nov-2024
HD Live streaming from Space Station
objects crossing your sky now

STARLINK-5520

Track STARLINK-5520 now!
10-day predictions
STARLINK-5520 is classified as:


NORAD ID: 57219
Int'l Code: 2023-094B
Perigee: 564.9 km
Apogee: 567.5 km
Inclination: 43.0 °
Period: 95.8 minutes
Semi major axis: 6937 km
RCS: Unknown
Launch date: July 7, 2023
Source: United States (US)
Launch site: AIR FORCE WESTERN TEST RANGE (AFWTR)
Your satellite tracking list
SPACEWAY 1
Track 1 satellite(s)




NASA's NSSDC Master Catalog

Two Line Element Set (TLE):
1 57219U 23094B   24325.75462613  .00000879  00000-0  80142-4 0  9995
2 57219  43.0043  85.9216 0001869 271.3453  88.7175 15.02530787 75826
Source of the keplerian elements: AFSPC